User: anonymous
Location: Chenango Forks
(42.2242°N, 75.8278°W)
Time: 18:18:50
(UTC-04:00)
Language:

Okean 3 Rocket - Orbit

View from above orbital plane
View from above orbital plane
View from above satellite
View from above satellite

Ground track
Ground track

The orbit data is extracted from the following two-line orbital elements,

1 21398U 91039B   14274.50193689  .00000679  00000-0  88053-4 0  8667
2 21398 082.5221 067.2506 0021973 182.1534 237.6793 14.79221677257576
Epoch (UTC): 01 October 2014 12:02:47
Eccentricity: 0.0021973
inclination: 82.5221°
perigee height: 616 km
apogee height: 647 km
right ascension of ascending node: 67.2506°
argument of perigee: 182.1534°
revolutions per day: 14.79221677
mean anomaly at epoch: 237.6793°
orbit number at epoch: 25757

The dashed part of the orbit path shows where the satellite is in the earth's shadow,  

DLR